Location: Berlin
(35.5298°N, 86.8244°W)
Time: 05:33:53
(UTC+00:00)

Daily predictions for brighter satellites

Satellite Brightness Start Highest point End
(mag) Time Altitude Azimuth Time Altitude Azimuth Time Altitude Azimuth
Okean 2 Rocket 3.3 00:02:11 10° SSE 00:06:21 43° E 00:08:01 29° NE
RESURS DK-1 3.3 00:03:19 10° N 00:05:59 28° NE 00:05:59 28° NE
BREEZE M DEB (TANK) 4.0 00:07:15 10° SSW 00:09:18 19° SSE 00:09:18 19° SSE
Nadezhda 4 Rocket 4.2 00:05:18 10° N 00:11:18 46° E 00:17:13 10° SSE
ISS -1.7 00:10:29 10° W 00:13:05 21° NNW 00:14:17 17° N
CZ-2D R/B 3.3 00:09:33 10° SSE 00:13:36 89° ENE 00:17:46 10° NNW
SJ 16-02 1.3 00:09:42 10° S 00:13:55 56° ESE 00:15:04 41° NE
ATLAS 2A CENTAUR R/B 4.1 00:01:27 10° WSW 00:14:19 33° S 00:17:16 20° SE
Spot 4 Rocket 3.9 00:10:43 10° SSE 00:15:47 76° ENE 00:20:53 10° N
Helios 1A Rocket 3.3 00:17:58 14° N 00:20:44 48° WNW 00:23:59 10° SSW
Cosmos 1536 Rocket 4.5 00:16:37 10° N 00:26:52 - SSE 00:19:15 32° NNE
USA 215 3.9 00:17:37 10° SSE 00:23:58 54° SW 00:30:22 10° NW
ATLAS 5 CENTAUR R/B 2.2 00:20:17 10° NW 00:25:07 74° WSW 00:31:05 10° SSE
Cosmos 1833 Rocket 4.2 00:24:02 10° NW 00:29:09 36° WSW 00:34:15 10° S
Cosmos 371 Rocket 3.1 00:26:25 10° S 00:31:09 67° ESE 00:31:39 62° ENE
Cosmos 1428 Rocket 4.5 00:27:20 10° N 00:33:31 58° E 00:39:41 10° SSE
Cosmos 1656 Rocket 4.0 00:29:17 10° S 00:33:51 44° SE 00:33:51 44° SE
Cosmos 2058 2.8 00:30:36 10° N 00:34:34 77° W 00:38:32 10° S
Cosmos 304 Rocket 3.6 00:35:17 10° SSW 00:40:00 87° ESE 00:40:28 73° NNE
NOAA 6 3.9 00:35:51 10° SSE 00:41:00 84° ENE 00:46:10 10° NNW
Cosmos 1763 Rocket 4.0 00:38:11 10° NNW 00:43:17 58° WSW 00:48:17 10° S
Cosmos 540 Rocket 3.7 00:40:59 10° NNW 00:46:04 66° WSW 00:51:06 10° S
Cosmos 1400 Rocket 3.7 00:45:45 10° SSW 00:49:24 45° W 00:49:28 45° WNW
OAO 3 Rocket 3.2 00:45:16 10° W 00:49:21 68° WSW 00:49:21 68° WSW
Sich 1 Rocket 4.1 00:50:57 10° SSW 00:55:23 59° W 00:55:44 57° WNW
Geosat 4.4 01:00:33 53° NNW 01:00:33 53° NNW 01:04:20 10° NNW
Cosmos 2034 Rocket 4.1 00:53:20 10° SSW 00:59:28 72° W 01:05:42 10° N
USA 281 4.1 01:07:16 33° N 01:07:16 33° N 01:10:58 10° N
Meteor 2-1 Rocket 4.4 00:59:58 10° SSW 01:05:47 75° W 01:07:22 50° N
Okean 1 Rocket 4.2 01:02:45 10° SSW 01:06:43 42° W 01:06:43 42° W
Cosmos 2082 Rocket 3.3 01:24:31 10° NNW 01:28:04 38° NW 01:28:04 38° NW
Cosmos 2344 4.4 01:39:57 10° NNW 01:45:44 47° N 01:45:44 47° N
SJ 16-02 4.5 01:51:12 10° WNW 01:51:41 11° WNW 01:51:41 11° WNW
SL-16 R/B 4.3 09:30:41 10° SSE 09:32:31 21° SSE 09:32:31 21° SSE
SL-16 R/B 3.9 09:36:25 10° SSE 09:41:16 30° ESE 09:46:09 10° NE
Cosmos 1725 Rocket 4.5 09:41:45 10° N 09:47:59 59° E 09:54:09 10° SSE
Cosmos 1802 Rocket 3.8 10:06:58 33° N 10:09:59 82° W 10:16:11 10° S
SJ 16-02 2.9 10:18:05 15° N 10:21:06 33° ENE 10:24:57 10° SE
Cosmos 2237 Rocket 3.9 10:24:59 18° NNW 10:24:59 18° NNW 10:26:39 10° N
Cosmos 2278 Rocket 2.5 10:25:23 45° SW 10:25:23 45° SW 10:29:55 10° S
Cosmos 2056 Rocket 3.4 10:21:55 29° SSW 10:24:44 80° WNW 10:30:09 10° NNE
Cosmos 1943 Rocket 2.8 10:28:04 36° SW 10:28:04 36° SW 10:31:50 10° S
USA 229 DEB 3.4 10:23:41 12° SSW 10:29:00 76° ESE 10:35:17 10° NE
USA 229 3.4 10:23:47 11° SSW 10:29:12 75° ESE 10:35:29 10° NE
Cosmos 2016 Rocket 3.9 10:26:29 10° NNW 10:32:46 64° W 10:38:56 10° S
Cosmos 407 Rocket 3.8 10:33:46 42° SW 10:33:46 42° SW 10:37:50 10° S
Cosmos 2369 Rocket 4.2 10:31:37 10° N 10:36:14 25° ENE 10:40:49 10° ESE
USA 267 3.8 10:33:23 10° NNE 10:39:18 39° NW 10:40:53 34° WNW
Cosmos 1932 4.5 10:36:40 31° NW 10:39:53 66° WSW 10:46:17 10° SSE
Cosmos 1782 Rocket 3.5 10:42:02 55° WNW 10:42:19 56° W 10:46:32 10° S
IRS-1D 3.4 10:38:30 10° NNE 10:43:26 81° ESE 10:48:22 10° S
Cosmos 1371 Rocket 4.0 10:41:02 22° SW 10:44:15 54° WNW 10:49:29 10° N
Iridium 4 Rocket 3.4 10:47:39 40° WSW 10:47:39 40° WSW 10:50:49 10° SSW
Helios 1A Rocket 4.1 10:45:48 10° SE 10:48:51 32° ENE 10:51:54 10° N
ATLAS 3B R/B 2.8 10:42:28 10° SW 10:49:49 78° WNW 10:57:40 10° NNE
FengYun 1-2 T 4.2 10:44:33 10° N 10:50:06 66° WNW 10:55:40 10° SSW
Cosmos 1300 Rocket 4.1 10:51:06 35° WSW 10:51:06 35° WSW 10:54:18 10° SSW
Cosmos 1869 3.1 10:47:38 15° N 10:50:28 70° E 10:53:57 10° SSE
Cosmos 371 Rocket 3.6 10:45:54 10° NNW 10:50:43 65° ENE 10:55:30 10° SSE
Cosmos 1812 3.1 10:54:00 10° N 10:56:47 44° E 10:59:34 10° SSE
Chandra Rocket (1) 3.9 10:54:12 22° WSW 10:57:21 45° S 11:11:48 10° ESE
Cosmos 304 Rocket 3.8 10:53:34 10° NNW 10:58:20 82° ENE 11:03:05 10° SSE
CENTAUR R/B 4.4 10:50:18 10° NNW 10:58:23 43° NE 11:07:15 10° ESE
CZ-4 R/B 3.7 10:53:57 10° N 10:58:45 79° WNW 11:03:26 10° SSW
Meteor 1-21 Rocket 4.2 10:53:57 10° S 10:59:44 89° E 11:05:25 10° N
Cosmos 1110 Rocket 4.2 10:55:03 10° S 11:00:17 77° ESE 11:05:36 10° NNE
Cosmos 1378 Rocket 3.4 11:00:01 10° S 11:04:16 88° E 11:08:33 10° N
Cosmos 2242 Rocket 3.7 11:04:00 10° SSW 11:08:13 48° W 11:12:30 10° N
NOAA 12 4.0 11:06:10 10° N 11:11:28 68° WNW 11:16:42 10° SSW
ATLAS CENTAUR Rocket 4.3 11:08:36 10° SSW 11:11:50 21° SE 11:17:18 10° E
USA 234 3.8 11:05:54 10° ESE 11:12:17 57° NE 11:18:41 10° NW
Cosmos 1656 Rocket 3.6 11:06:46 10° NNW 11:12:28 83° WSW 11:18:06 10° SSE
In-Cosmos 22 Rocket 4.3 11:08:41 10° SSW 11:14:23 56° W 11:20:05 10° N
CZ-3 R/B 2.7 11:03:32 11° WSW 11:17:47 53° S 11:23:04 10° ESE
Cosmos 2251 Rocket 4.3 11:18:51 14° NW 11:22:43 30° W 11:27:20 10° SSW
Cosmos 1891 Rocket 4.4 11:18:51 10° N 11:25:08 75° W 11:31:16 10° S
SL-16 R/B 2.8 11:20:09 10° SW 11:25:13 33° WNW 11:30:19 10° N
IGS 5A 4.1 11:28:24 10° NNE 11:32:22 58° E 11:36:18 10° S
Cosmos 1452 Rocket 3.4 11:28:37 10° SSW 11:33:49 72° WNW 11:39:03 10° NNE
H-2A R/B 3.6 11:31:40 10° SW 11:34:05 28° S 11:40:34 10° ESE
Aureole 3 Rocket 4.3 11:30:48 10° NNW 11:36:28 57° W 11:44:14 10° S
ARIANE 5 R/B 4.4 11:39:25 10° NNE 11:44:06 36° E 11:48:48 10° SSE
Cosmos 1850 Rocket 4.3 11:39:57 10° NNW 11:45:06 72° ENE 11:50:15 10° SSE
Cosmos 1331 Rocket 4.4 11:42:36 10° SW 11:47:31 40° WNW 11:52:27 10° N
Cosmos 1464 Rocket 3.9 11:41:22 10° N 11:47:31 80° W 11:53:37 10° S
Hubble Space Telescope 3.4 11:54:43 10° S 11:56:21 12° SSE 11:57:58 10° SE
